Station CLSM4 - St. Clair Shores, MI Image indicating link to RSS feed of recent meteorological observations for station CLSM4


Conditions at CLSM4 as of
(12:00 am EST)
0500 GMT on 12/05/2023:
     

Click on the graph icon in the table below to see a time series plot of the last five days of that observation.

5-day plot - Wind Speed Wind Speed (WSPD): 0.0 kts
5-day plot - Wind Gust Wind Gust (GST): 1.9 kts
5-day plot - Atmospheric Pressure Atmospheric Pressure (PRES):30.07 in
5-day plot - Pressure Tendency Pressure Tendency (PTDY):+0.03 in ( Rising )
5-day plot - Air Temperature Air Temperature (ATMP): 35.2 °F
5-day plot - Wind Speed at 10 Meters Wind Speed at 10 meters (WSPD10M): 0.0 kts
5-day plot - Wind Speed at 20 Meters Wind Speed at 20 meters (WSPD20M): 0.0 kts
5-day plot -  Wind Speed, Wind Gust and Atmospheric Pressure Combined plot of Wind Speed, Gust, and Air Pressure
Previous observations
TIME
(EST)
5-day plot - Wind Direction
WDIR
 
5-day plot - Wind Speed
WSPD
kts
5-day plot - Wind Gust
GST
kts
5-day plot - Wave Height
WVHT
ft
5-day plot - Dominant Wave Period
DPD
sec
5-day plot - Average Wave Period
APD
sec
5-day plot - Mean Wave Direction
MWD
 
5-day plot - Atmospheric Pressure
PRES
in
5-day plot - Pressure Tendency
PTDY
in
5-day plot - Air Temperature
ATMP
°F
5-day plot - Water Temperature
WTMP
°F
5-day plot - Dew Point
DEWP
°F
5-day plot - Salinity
SAL
psu
5-day plot - Visibility
VIS
nmi
5-day plot - Tide (above MLLW)
TIDE
ft
2023-12-04 11:50 pm SW 1.0 1.9----30.07- 35.1-----
2023-12-04 11:40 pm- 0.0 1.9----30.06- 35.2-----
2023-12-04 11:30 pm W 1.0 1.9----30.06- 35.4-----
2023-12-04 11:20 pmWNW 1.9 5.1----30.07- 35.4-----
2023-12-04 11:10 pmWNW 1.0 5.1----30.07- 35.6-----
2023-12-04 11:00 pmWNW 2.9 7.0----30.07+0.04 35.6-----
2023-12-04 10:50 pm NW 4.1 8.0----30.07- 35.6-----
2023-12-04 10:40 pm NW 4.1 8.0----30.06- 35.6-----
2023-12-04 10:30 pmWNW 4.1 7.0----30.06- 35.4-----
2023-12-04 10:20 pm W 5.1 9.9----30.06- 35.2-----
2023-12-04 10:10 pm W 5.1 7.0----30.06- 35.1-----
2023-12-04 10:00 pm W 4.1 5.1----30.06+0.04 34.9-----
2023-12-04 09:50 pm W 2.9 6.0----30.05- 34.7-----
2023-12-04 09:40 pm W 2.9 5.1----30.05- 34.7-----
2023-12-04 09:30 pm W 1.9 5.1----30.05- 34.7-----
2023-12-04 09:20 pm W 2.9 6.0----30.04- 34.7-----
2023-12-04 09:10 pm W 2.9 5.1----30.04- 34.7-----
2023-12-04 09:00 pm W 2.9 4.1----30.04+0.03 34.7-----
2023-12-04 08:50 pm W 2.9 4.1----30.03- 34.9-----
2023-12-04 08:40 pmWSW 2.9 5.1----30.04- 34.7-----
2023-12-04 08:30 pm W 1.9 4.1----30.04- 34.9-----
2023-12-04 08:20 pmWSW 2.9 5.1----30.03- 35.1-----
2023-12-04 08:10 pm W 1.9 5.1----30.03- 35.4-----
2023-12-04 08:00 pm W 2.9 7.0----30.03+0.05 35.6-----
2023-12-04 07:50 pm W 4.1 7.0----30.03- 35.8-----
2023-12-04 07:40 pm W 4.1 6.0----30.03- 35.8-----
2023-12-04 07:30 pmWSW 2.9 4.1----30.03- 35.6-----
2023-12-04 07:20 pmWSW 2.9 5.1----30.03- 35.4-----
2023-12-04 07:10 pm SW 2.9 4.1----30.03- 35.2-----
2023-12-04 07:00 pm SW 1.9 2.9----30.02+0.07 35.2-----
2023-12-04 06:50 pm SW 1.0 1.9----30.02- 35.4-----
2023-12-04 06:40 pm- 0.0 2.9----30.01- 35.8-----
2023-12-04 06:30 pm W 1.9 4.1----30.01- 36.1-----
2023-12-04 06:20 pm W 1.9 2.9----30.01- 36.3-----
2023-12-04 06:10 pm W 1.9 5.1----30.01- 36.5-----
2023-12-04 06:00 pmWNW 4.1 6.0----30.01+0.09 36.7-----
2023-12-04 05:50 pmWNW 2.9 6.0----30.00- 36.9-----
2023-12-04 05:40 pmWNW 5.1 9.9----30.00- 37.0-----
2023-12-04 05:30 pm W 6.0 8.0----30.00- 36.9-----
2023-12-04 05:20 pmWNW 5.1 8.0----29.99- 36.7-----
2023-12-04 05:10 pmWNW 6.0 8.9----29.99- 36.7-----
2023-12-04 05:00 pmWNW 5.1 9.9----29.98+0.07 36.3-----
2023-12-04 04:50 pm W 7.0 11.1----29.98- 36.3-----
2023-12-04 04:40 pm W 7.0 13.0----29.97- 36.1-----
2023-12-04 04:30 pmWNW 7.0 9.9----29.97- 36.1-----
2023-12-04 04:20 pmWNW 5.1 9.9----29.96- 36.0-----
2023-12-04 04:10 pmWNW 7.0 12.0----29.96- 36.0-----
2023-12-04 04:00 pm W 8.0 12.0----29.95+0.05 36.0-----
2023-12-04 03:50 pm W 8.0 11.1----29.95- 36.0-----
2023-12-04 03:40 pm W 8.0 14.0----29.94- 36.0-----
2023-12-04 03:30 pm W 7.0 9.9----29.93- 36.0-----
2023-12-04 03:20 pm W 7.0 11.1----29.93- 35.6-----
2023-12-04 03:10 pm W 6.0 12.0----29.93- 35.4-----
2023-12-04 03:00 pmWNW 6.0 8.9----29.92+0.03 35.8-----
2023-12-04 02:50 pmWNW 6.0 12.0----29.92- 35.8-----
2023-12-04 02:40 pmWNW 9.9 14.0----29.92- 36.0-----
2023-12-04 02:30 pm W 9.9 14.0----29.92- 36.3-----
2023-12-04 02:20 pmWNW 6.0 11.1----29.91- 36.9-----
2023-12-04 02:10 pmWNW 8.0 13.0----29.91- 37.0-----
2023-12-04 02:00 pm W 8.0 11.1----29.91+0.01 37.6-----
2023-12-04 01:50 pmWNW 5.1 8.9----29.91- 37.8-----
2023-12-04 01:40 pmWNW 2.9 7.0----29.90- 37.8-----
2023-12-04 01:30 pm W 5.1 9.9----29.90- 37.6-----
2023-12-04 01:20 pm NW 4.1 8.9----29.90- 37.6-----
2023-12-04 01:10 pmWNW 7.0 11.1----29.90- 37.6-----
2023-12-04 01:00 pm NW 7.0 11.1----29.90+0.00 37.6-----
2023-12-04 12:50 pmWNW 7.0 9.9----29.89- 37.6-----
2023-12-04 12:40 pmNNW 4.1 8.0----29.89- 37.6-----
2023-12-04 12:30 pmNNW 4.1 8.0----29.89- 37.8-----
2023-12-04 12:20 pmWNW 2.9 7.0----29.89- 37.8-----
2023-12-04 12:10 pm NW 4.1 9.9----29.89- 37.6-----
2023-12-04 12:00 pmWNW 7.0 9.9----29.89+0.01 38.1-----
2023-12-04 11:50 amWNW 6.0 9.9----29.89- 37.6-----
2023-12-04 11:40 amWNW 8.0 11.1----29.89- 37.9-----
2023-12-04 11:30 amWNW 4.1 8.9----29.90- 37.6-----
2023-12-04 11:20 amWNW 4.1 9.9----29.90- 37.2-----
2023-12-04 11:10 amWNW 2.9 8.0----29.90- 37.0-----
2023-12-04 11:00 am NW 4.1 8.0----29.90+0.03 36.1-----
2023-12-04 10:50 am NW 5.1 8.0----29.90- 36.3-----
2023-12-04 10:40 amNNW 2.9 7.0----29.90- 36.7-----
2023-12-04 10:30 amWNW 5.1 8.0----29.90- 36.3-----
2023-12-04 10:20 am W 5.1 7.0----29.90- 36.7-----
2023-12-04 10:10 amWNW 4.1 8.9----29.90- 36.7-----
2023-12-04 10:00 am NW 6.0 8.0----29.90+0.04 36.9-----
2023-12-04 09:50 am NW 6.0 8.9----29.90- 36.7-----
2023-12-04 09:40 amWNW 4.1 7.0----29.89- 36.3-----
2023-12-04 09:30 amWNW 5.1 8.0----29.89- 36.3-----
2023-12-04 09:20 amNNW 2.9 7.0----29.89- 36.3-----
2023-12-04 09:10 amNNW 1.9 8.0----29.89- 36.5-----
2023-12-04 09:00 am NW 4.1 7.0----29.88+0.05 36.3-----
2023-12-04 08:50 am NW 6.0 8.0----29.88- 36.5-----
2023-12-04 08:40 am NW 6.0 8.9----29.88- 36.5-----
2023-12-04 08:30 am NW 4.1 9.9----29.88- 36.7-----
2023-12-04 08:20 am NW 4.1 7.0----29.88- 36.9-----
2023-12-04 08:10 am NW 2.9 7.0----29.87- 37.0-----
2023-12-04 08:00 amWNW 5.1 8.0----29.87+0.06 37.0-----
2023-12-04 07:50 am NW 5.1 7.0----29.87- 37.2-----
2023-12-04 07:40 am NW 2.9 6.0----29.87- 37.2-----
2023-12-04 07:30 am NW 4.1 6.0----29.87- 37.2-----
2023-12-04 07:20 am NW 4.1 6.0----29.87- 37.4-----
2023-12-04 07:10 amWNW 2.9 8.0----29.86- 37.6-----
2023-12-04 07:00 am W 4.1 8.0----29.86+0.05 37.8-----
2023-12-04 06:50 am W 5.1 8.9----29.85- 37.8-----
2023-12-04 06:40 amWNW 6.0 11.1----29.85- 37.8-----
2023-12-04 06:30 am W 7.0 9.9----29.84- 37.8-----
2023-12-04 06:20 am W 5.1 7.0----29.84- 37.8-----
2023-12-04 06:10 amWNW 5.1 9.9----29.83- 37.8-----
2023-12-04 06:00 am NW 5.1 9.9----29.83+0.02 37.8-----
2023-12-04 05:50 amWNW 5.1 11.1----29.83- 37.9-----
2023-12-04 05:40 amWNW 5.1 11.1----29.82- 38.1-----
2023-12-04 05:30 am W 7.0 12.0----29.82- 38.3-----
2023-12-04 05:20 am W 7.0 11.1----29.82- 38.5-----
2023-12-04 05:10 am W 7.0 11.1----29.82- 38.5-----
2023-12-04 05:00 am W 7.0 9.9----29.81+0.01 38.5-----
2023-12-04 04:50 amWNW 7.0 12.0----29.81- 38.7-----
2023-12-04 04:40 am W 7.0 12.0----29.81- 38.7-----
2023-12-04 04:30 am W 8.0 13.0----29.81- 38.7-----
2023-12-04 04:20 am W 6.0 13.0----29.80- 38.7-----
2023-12-04 04:10 am W 7.0 13.0----29.81- 38.8-----
2023-12-04 04:00 am W 9.9 15.0----29.81+0.02 38.8-----
2023-12-04 03:50 am W 8.9 15.0----29.81- 38.8-----
2023-12-04 03:40 am W 9.9 15.9----29.81- 39.0-----
2023-12-04 03:30 am W 8.9 15.0----29.81- 39.2-----
2023-12-04 03:20 am W 8.9 12.0----29.81- 39.2-----
2023-12-04 03:10 am W 7.0 11.1----29.82- 39.4-----
2023-12-04 03:00 am W 8.0 15.9----29.81+0.03 39.6-----
2023-12-04 02:50 am W 11.1 15.9----29.81- 39.4-----
2023-12-04 02:40 am W 8.9 13.0----29.80- 39.2-----
2023-12-04 02:30 amWSW 8.0 14.0----29.81- 39.0-----
2023-12-04 02:20 amWSW 8.9 17.1----29.81- 39.2-----
2023-12-04 02:10 am SW 8.0 14.0----29.81- 39.2-----
2023-12-04 02:00 amWSW 9.9 15.0----29.80+0.03 39.6-----
2023-12-04 01:50 amWSW 8.9 15.9----29.80- 39.7-----
2023-12-04 01:40 amWSW 6.0 9.9----29.80- 40.1-----
2023-12-04 01:30 amWSW 8.0 13.0----29.79- 40.1-----
2023-12-04 01:20 amWSW 8.0 11.1----29.80- 40.1-----
2023-12-04 01:10 amWSW 5.1 8.0----29.80- 39.7-----
2023-12-04 01:00 amWSW 4.1 8.0----29.79+0.04 39.6-----
2023-12-04 12:50 amWSW 6.0 8.9----29.79- 39.6-----
2023-12-04 12:40 am W 6.0 8.9----29.79- 39.6-----
2023-12-04 12:30 am W 6.0 9.9----29.78- 39.6-----
2023-12-04 12:20 am W 8.0 14.0----29.78- 39.7-----
2023-12-04 12:10 am W 7.0 12.0----29.78- 39.6-----
2023-12-04 12:00 am W 8.0 11.1----29.78+0.04 39.6-----
2023-12-03 11:50 pm W 7.0 11.1----29.78- 39.7-----